This demonstration page uses our WeatherBlox Daily Observations layout. Learn more.

Left ArrowRight Arrow

Hourly Observations for August 22, 2020

Temp ( °F °C ) Dew Point ( °F °C ) Humidity (%) Winds ( mph kmh ) Pressure ( in mb ) Visibility ( mi km ) Precip ( " mm )
12:53 am 00:53 Clear 70 21.1 62 16.7 76 76 S 5 7 29.85 1011 10 16 0.00 0.00
1:53 am 01:53 Clear 68 20 61 16.1 78 78 S 7 11 29.85 1011 10 16 0.00 0.00
2:53 am 02:53 Clear 67 19.4 61 16.1 81 81 S 5 7 29.85 1011 10 16 0.00 0.00
3:53 am 03:53 Clear 66 18.9 61 16.1 84 84 S 6 9 29.84 1011 10 16 0.00 0.00
4:53 am 04:53 Clear 66 18.9 61 16.1 84 84 SSW 6 9 29.85 1011 10 16 0.00 0.00
5:53 am 05:53 Clear 65 18.3 60 15.6 84 84 SSW 5 7 29.85 1011 10 16 0.00 0.00
6:53 am 06:53 Sunny 63 17.2 60 15.6 90 90 SSW 5 7 29.86 1011 10 16 0.00 0.00
7:53 am 07:53 Sunny 65 18.3 61 16.1 87 87 SSW 5 7 29.87 1012 10 16 0.00 0.00
8:53 am 08:53 Sunny 68 20 62 16.7 81 81 SSW 7 11 29.88 1012 10 16 0.00 0.00
9:53 am 09:53 Sunny 73 22.8 64 17.8 74 74 SSW 8 13 29.88 1012 10 16 0.00 0.00
10:53 am 10:53 Sunny 78 25.6 65 18.3 64 64 SW 8 13 29.88 1012 10 16 0.00 0.00
11:53 am 11:53 Sunny 81 27.2 66 18.9 61 61 SSW 8 13 29.88 1012 10 16 0.00 0.00
12:53 pm 12:53 Sunny 85 29.4 66 18.9 53 53 SW 8 13 29.86 1011 10 16 0.00 0.00
1:53 pm 13:53 Sunny 88 31.1 67 19.4 50 50 VRB 7 11 29.86 1011 10 16 0.00 0.00
2:53 pm 14:53 Sunny 91 32.8 66 18.9 44 44 S 7 11 29.85 1011 10 16 0.00 0.00
3:53 pm 15:53 Sunny 92 33.3 65 18.3 41 41 SSW 12 19 29.84 1011 10 16 0.00 0.00
4:53 pm 16:53 Sunny 91 32.8 65 18.3 42 42 SSW 9 15 29.84 1010 10 16 0.00 0.00
5:53 pm 17:53 Sunny 91 32.8 66 18.9 44 44 S 8 13 29.84 1011 10 16 0.00 0.00
6:53 pm 18:53 Sunny 89 31.7 67 19.4 48 48 S 8 13 29.85 1011 10 16 0.00 0.00
7:53 pm 19:53 Sunny 84 28.9 67 19.4 57 57 S 7 11 29.85 1011 10 16 0.00 0.00
8:53 pm 20:53 Clear 80 26.7 66 18.9 62 62 S 6 9 29.86 1011 10 16 0.00 0.00
9:53 pm 21:53 Clear 78 25.6 65 18.3 64 64 S 6 9 29.87 1012 10 16 0.00 0.00
10:53 pm 22:53 Clear 77 25 64 17.8 64 64 S 6 9 29.88 1012 10 16 0.00 0.00
11:53 pm 23:53 Clear 75 23.9 64 17.8 69 69 S 5 7 29.88 1012 10 16 0.00 0.00

Powered by AerisWeather